Location: Unspecified
(0.0000°N, 0.0000°E)
Time: 19:05:17
(UTC+00:00)

Explorer 11/Cluster Stage 4 - Pass Details

Date: 24 November 2019
Orbit: 467 x 1259 km, 28.8° (Epoch: 09 December)

Event Time Altitude Azimuth Distance (km) Brightness Sun altitude
Rises 00:33:41 0° 311° (NW) 3,846 - -66.5°
Reaches altitude 10° 00:36:22 10° 316° (NW) 2,985 - -66.2°
Maximum altitude 00:43:47 54° 31° (NNE) 1,455 - -65.2°
Drops below altitude 10° 00:51:48 10° 106° (ESE) 3,231 - -64.0°
Exits shadow 00:54:39 - 110° (ESE) 4,127 10.6 -63.6°
Sets 00:54:49 0° 110° (ESE) 4,182 10.6 -63.6°
